Weather History for KOXV - April, 2013

Change the Weather History Date:

Thursday, April 25, 2013

  Actual Average Record
Temperature  
Mean Temperature 46 °F -  
Max Temperature 60 °F 69 °F 89 °F (1949)
Min Temperature 32 °F 45 °F 30 °F (1968)
Degree Days  
Heating Degree Days 19    
Moisture  
Dew Point 31 °F    
Average Humidity 58    
Maximum Humidity 87    
Minimum Humidity 31    
Precipitation  
Precipitation 0.00 in - - ()
Sea Level Pressure  
Sea Level Pressure 30.21 in    
Wind  
Wind Speed 10 mph (WSW)    
Max Wind Speed 15 mph    
Max Gust Speed 22 mph    
Visibility 10 miles    
Events      
Averages and records for this station are not official NWS values.
T = Trace of Precipitation, MM = Missing Value Source: NWS Daily Summary

Daily Weather History Graph

Daily Weather History Graph

Search for Another Location

Airport or City:

Trip Planner

Search our weather history database for the weather conditions in past years. The results will help you decide how hot, cold, wet, or windy it might be!

Date:

Astronomy

Apr. 25, 2013 Rise Set
Actual Time 6:17 AM CDT 8:03 PM CDT
Civil Twilight 5:48 AM CDT 8:33 PM CDT
Nautical Twilight 5:12 AM CDT 9:09 PM CDT
Astronomical Twilight 4:34 AM CDT 9:47 PM CDT
Moon 8:17 PM CDT (4/25) 6:01 AM CDT (4/25)
Length of Visible Light 14h 45m
Length of Day
13h 46m
Full, 100% of the Moon is Illuminated
Apr 25
Full
Apr 25
Full
May 2
Last Quarter
May 9
New
May 17
First Quarter

Hourly Weather History & Observations

Time (CDT) Temp. Windchill Dew Point Humidity Pressure Visibility Wind Dir Wind Speed Gust Speed Precip Events Conditions
12:15 AM 41.0 °F 33.9 °F 37.4 °F 87% 30.13 in 10.0 mi West 12.7 mph - N/A   Scattered Clouds
12:35 AM 42.8 °F 35.4 °F 35.6 °F 76% 30.14 in 10.0 mi West 15.0 mph - N/A   Scattered Clouds
12:55 AM 41.0 °F 33.9 °F 35.6 °F 81% 30.14 in 10.0 mi West 12.7 mph - N/A   Scattered Clouds
1:15 AM 41.0 °F 33.5 °F 33.8 °F 76% 30.15 in 10.0 mi WNW 13.8 mph 21.9 mph N/A   Clear
1:35 AM 41.0 °F 34.3 °F 32.0 °F 70% 30.16 in 10.0 mi WNW 11.5 mph - N/A   Clear
1:55 AM 39.2 °F 32.5 °F 32.0 °F 75% 30.16 in 10.0 mi WNW 10.4 mph - N/A   Clear
2:15 AM 39.2 °F 33.0 °F 32.0 °F 75% 30.17 in 10.0 mi WNW 9.2 mph - N/A   Clear
2:35 AM 37.4 °F 30.8 °F 32.0 °F 81% 30.17 in 10.0 mi WNW 9.2 mph - N/A   Clear
2:55 AM 35.6 °F 30.7 °F 30.2 °F 81% 30.17 in 10.0 mi WNW 5.8 mph - N/A   Clear
3:15 AM 35.6 °F 29.2 °F 30.2 °F 81% 30.18 in 10.0 mi WNW 8.1 mph - N/A   Clear
3:35 AM 35.6 °F 28.6 °F 30.2 °F 81% 30.19 in 10.0 mi West 9.2 mph - N/A   Clear
3:55 AM 33.8 °F 27.7 °F 30.2 °F 87% 30.19 in 10.0 mi West 6.9 mph - N/A   Clear
4:15 AM 33.8 °F 27.7 °F 30.2 °F 87% 30.19 in 10.0 mi West 6.9 mph - N/A   Clear
4:35 AM 33.8 °F 27.0 °F 30.2 °F 87% 30.19 in 10.0 mi West 8.1 mph - N/A   Clear
4:55 AM 33.8 °F 27.0 °F 30.2 °F 87% 30.20 in 10.0 mi West 8.1 mph - N/A   Clear
5:15 AM 33.8 °F 27.7 °F 30.2 °F 87% 30.20 in 10.0 mi WSW 6.9 mph - N/A   Clear
5:35 AM 33.8 °F 27.0 °F 28.4 °F 81% 30.20 in 10.0 mi West 8.1 mph - N/A   Clear
5:55 AM 32.0 °F 25.6 °F 28.4 °F 87% 30.20 in 10.0 mi West 6.9 mph - N/A   Clear
6:15 AM 32.0 °F 25.6 °F 28.4 °F 87% 30.21 in 10.0 mi West 6.9 mph - N/A   Clear
6:35 AM 32.0 °F 26.4 °F 28.4 °F 87% 30.21 in 10.0 mi WNW 5.8 mph - N/A   Clear
6:55 AM 33.8 °F 27.7 °F 30.2 °F 87% 30.22 in 10.0 mi West 6.9 mph - N/A   Clear
7:15 AM 33.8 °F 27.7 °F 30.2 °F 87% 30.23 in 10.0 mi West 6.9 mph - N/A   Clear
7:35 AM 35.6 °F 29.9 °F 30.2 °F 81% 30.24 in 10.0 mi WSW 6.9 mph - N/A   Clear
7:55 AM 37.4 °F 30.8 °F 32.0 °F 81% 30.25 in 10.0 mi West 9.2 mph - N/A   Clear
8:15 AM 39.2 °F 32.5 °F 32.0 °F 75% 30.25 in 10.0 mi West 10.4 mph - N/A   Clear
8:35 AM 41.0 °F 34.7 °F 33.8 °F 76% 30.26 in 10.0 mi WNW 10.4 mph - N/A   Clear
8:55 AM 41.0 °F 34.3 °F 33.8 °F 76% 30.26 in 10.0 mi West 11.5 mph - N/A   Clear
9:15 AM 42.8 °F 36.6 °F 32.0 °F 66% 30.27 in 10.0 mi West 11.5 mph - N/A   Clear
9:35 AM 42.8 °F 37.5 °F 30.2 °F 61% 30.28 in 10.0 mi West 9.2 mph 16.1 mph N/A   Clear
9:55 AM 44.6 °F 38.4 °F 30.2 °F 57% 30.28 in 10.0 mi West 12.7 mph - N/A   Clear
10:15 AM 44.6 °F 38.8 °F 28.4 °F 53% 30.28 in 10.0 mi WNW 11.5 mph - N/A   Clear
10:35 AM 46.4 °F 41.5 °F 30.2 °F 53% 30.29 in 10.0 mi WNW 10.4 mph - N/A   Clear
10:55 AM 48.2 °F - 32.0 °F 54% 30.29 in 10.0 mi WNW 12.7 mph - N/A   Clear
11:15 AM 48.2 °F - 32.0 °F 54% 30.29 in 10.0 mi West 10.4 mph 16.1 mph N/A   Clear
11:35 AM 50.0 °F - 32.0 °F 50% 30.29 in 10.0 mi West 12.7 mph - N/A   Clear
11:55 AM 50.0 °F - 32.0 °F 50% 30.29 in 10.0 mi West 12.7 mph 19.6 mph N/A   Clear
12:15 PM 51.8 °F - 32.0 °F 47% 30.28 in 10.0 mi WNW 10.4 mph 17.3 mph N/A   Clear
12:35 PM 51.8 °F - 30.2 °F 44% 30.28 in 10.0 mi West 12.7 mph - N/A   Clear
12:55 PM 51.8 °F - 28.4 °F 41% 30.28 in 10.0 mi WNW 12.7 mph 20.7 mph N/A   Clear
1:15 PM 53.6 °F - 30.2 °F 41% 30.27 in 10.0 mi WNW 8.1 mph 17.3 mph N/A   Clear
1:35 PM 53.6 °F - 30.2 °F 41% 30.27 in 10.0 mi WNW 10.4 mph - N/A   Clear
1:55 PM 53.6 °F - 28.4 °F 38% 30.26 in 10.0 mi West 11.5 mph - N/A   Clear
2:15 PM 53.6 °F - 28.4 °F 38% 30.25 in 10.0 mi West 8.1 mph - N/A   Clear
2:35 PM 55.4 °F - 28.4 °F 36% 30.25 in 10.0 mi Calm Calm 11.5 mph N/A   Partly Cloudy
2:55 PM 57.2 °F - 30.2 °F 36% 30.25 in 10.0 mi WSW 8.1 mph 15.0 mph N/A   Scattered Clouds
3:15 PM 57.2 °F - 30.2 °F 36% 30.24 in 10.0 mi WSW 10.4 mph - N/A   Partly Cloudy
3:35 PM 57.2 °F - 30.2 °F 36% 30.23 in 10.0 mi WNW 3.5 mph - N/A   Clear
3:55 PM 59.0 °F - 32.0 °F 36% 30.22 in 10.0 mi SSE 10.4 mph - N/A   Clear
4:15 PM 59.0 °F - 30.2 °F 34% 30.21 in 10.0 mi Variable 5.8 mph 12.7 mph N/A   Clear
4:35 PM 59.0 °F - 32.0 °F 36% 30.20 in 10.0 mi SSW 9.2 mph - N/A   Clear
4:55 PM 59.0 °F - 30.2 °F 34% 30.19 in 10.0 mi Variable 4.6 mph 13.8 mph N/A   Clear
5:15 PM 59.0 °F - 30.2 °F 34% 30.18 in 10.0 mi SSE 6.9 mph 13.8 mph N/A   Clear
5:35 PM 59.0 °F - 30.2 °F 34% 30.18 in 9.0 mi South 6.9 mph 16.1 mph N/A   Clear
5:55 PM 60.8 °F - 32.0 °F 34% 30.18 in 10.0 mi South 12.7 mph - N/A   Clear
6:15 PM 60.8 °F - 30.2 °F 31% 30.18 in 10.0 mi South 10.4 mph - N/A   Clear
6:35 PM 59.0 °F - 32.0 °F 36% 30.17 in 10.0 mi South 13.8 mph - N/A   Clear
6:55 PM 59.0 °F - 32.0 °F 36% 30.17 in 10.0 mi South 10.4 mph - N/A   Clear
7:15 PM 57.2 °F - 32.0 °F 38% 30.17 in 10.0 mi South 9.2 mph - N/A   Clear
7:35 PM 57.2 °F - 32.0 °F 38% 30.16 in 10.0 mi SSE 8.1 mph - N/A   Clear
7:55 PM 55.4 °F - 32.0 °F 41% 30.16 in 10.0 mi SSE 8.1 mph - N/A   Clear
8:15 PM 55.4 °F - 32.0 °F 41% 30.16 in 10.0 mi SE 8.1 mph - N/A   Clear
8:35 PM 55.4 °F - 32.0 °F 41% 30.16 in 10.0 mi SE 8.1 mph - N/A   Clear
8:55 PM 53.6 °F - 32.0 °F 44% 30.16 in 10.0 mi SE 8.1 mph - N/A   Clear
9:15 PM 53.6 °F - 32.0 °F 44% 30.16 in 10.0 mi SE 6.9 mph - N/A   Clear
9:35 PM 51.8 °F - 32.0 °F 47% 30.17 in 10.0 mi SE 8.1 mph - N/A   Clear
9:55 PM 51.8 °F - 32.0 °F 47% 30.17 in 10.0 mi SE 9.2 mph - N/A   Clear
10:15 PM 51.8 °F - 32.0 °F 47% 30.17 in 10.0 mi SE 9.2 mph - N/A   Clear
10:35 PM 50.0 °F - 32.0 °F 50% 30.18 in 10.0 mi SSE 9.2 mph - N/A   Clear
10:55 PM 50.0 °F - 33.8 °F 54% 30.17 in 10.0 mi SSE 8.1 mph - N/A   Clear
11:15 PM 50.0 °F - 33.8 °F 54% 30.17 in 10.0 mi SSE 9.2 mph - N/A   Clear
11:35 PM 50.0 °F - 33.8 °F 54% 30.17 in 10.0 mi SSE 10.4 mph - N/A   Clear
11:55 PM 50.0 °F - 33.8 °F 54% 30.17 in 10.0 mi SSE 9.2 mph - N/A   Clear